STARLINK-11513, 62589

Orbit data source: Space-Track

STARLINK-11513, 62589 is a payload satellite owned by SpaceX/Seattle (US) in LEO that was launched on Mon, 13 Jan 2025 UTC via an FALCON 9 launch vehicle from the Air Force Eastern Test Range (AFETR). Payload-class satellites include a variety of spacecraft equipped with specific instruments for various scientific and technological missions. These include communications satellites like Starlink; space stations such as the ISS; scientific satellites like the Hubble; Earth observation satellites from companies like Planet Labs, Umbra, and HawkEye 360; GPS; miniature CubeSats for education and research; and military/defense satellites.

Loading next visibility...
Identifier
62589, 2025-008C
Orbit
LEO
Last TLE update
7 hours ago
Origin
Manufacturer
SpaceX/Seattle
Mission
Operational Commercial Communications
Bus & Motor
STARLINK V2M, Unknown motor
Mass
730 kg wet, ~700 kg dry
Launch date (UTC)
2025-01-13 (6 months ago)
Launch vehicle
FALCON 9
Launch site
Air Force Eastern Test Range (AFETR)
Object type
Payload
Rocket body
Debris
Shape & HBR
Box + 2 Pan, 29 m
Radar Cross Section
36.964 m², Large (>1 m²)

Expand to show TLE details & history

TLE from 7 hours ago
0 STARLINK-11513
1 62589U 25008C   25182.09156341  .00267691  00000-0  20030-2 0  9990
2 62589  43.0004 202.7827 0002333 222.1042 137.9647 15.71078798 27701
Epoch: 2025-07-01T02:11Z
TLE epoch observation values (Epoch: 2025-07-01T02:11:51.078Z)
Latitude
-0.00001°
Longitude
-109.57212°
Altitude
356.751 km
Speed
7.696 km/s
True Right ascension
13h 31m 07s
True Declination
0° 00' 00"
Sunlit
Object was in daylight at epoch
Visualization orbit readout
Latitude
-42.28071°
Longitude
172.74943°
Altitude
367.431 km
Speed
7.69 km/s
Apparent Right ascension
08h 43m 46s
Apparent Declination
-41° 05' 49"
Sunlit
Object is in daylight
Visualization observer readout
Local Sidereal Time
21:07:36
Azimuth
106.535° ESE
Elevation
-85.32°
Doppler factor
1
Orbital elements
Apogee altitude
359.366 km
Perigee altitude
356.223 km
Semi-major axis
6,735.931 km
Eccentricity
0.00023
Inclination
43.0004°
RAAN
202.7827°
Arg. of periapsis
222.1042°
True anomaly
Unknown
Mean anomaly
137.9647°
Eccentric anomaly
Unknown
Mean motion
3.92597 °/min
Orbital period
91.7 mins
BSTAR
0.002003
Loading maneuver chart data...
Loading SW <> Apogee altitude chart data...
Loading historical data...
Loading historical data...
Loading historical data...
Loading historical data...
Loading historical data...
Loading historical data...
Loading historical data...

STARLINK-11513 Visibility forecast

Observer location: undefined°, undefined°

Span
Click to sort rows by Start time (UTC) header in descending order
Start Az.
Max El. time (UTC)
Max El. Az.
Max El.
End time (UTC)
End Az.
5 mins2025-07-01 10:17:18.488Z275.508° WNW2025-07-01 10:19:18.488Z230.868° WSW31.147°2025-07-01 10:22:18.488Z136.474° SSE
4 mins2025-07-02 05:56:18.488Z264.489° W2025-07-02 05:58:18.488Z6.954° NNE42.602°2025-07-02 06:00:18.488Z67.165° ENE
4 mins2025-07-02 09:09:18.488Z284.814° WNW2025-07-02 09:10:18.488Z270.951° WNW42.588°2025-07-02 09:13:18.488Z112.516° SE
|